Hourly Data Report for October 22, 2018

VICTORIA UNIVERSITY CS
BRITISH COLUMBIA
Current Station Operator: ECCC - MSC

48°27'25.200" N
123°18'16.600" W
60.10 m
1018598
71783
WYJ

Download Data

Hourly Data (October 2018)
Hourly Data Report for October 22, 2018
TIME
LST
Temp Definition
°C
Dew Point Definition
°C
Rel Hum Definition
%
Precip. Amount Definition
mm

Wind Dir Definition
10's deg

Wind Spd Definition
km/h
Visibility Definition
km
Stn Press Definition
kPa
Hmdx Definition


Wind Chill Definition


Weather Definition


00:00 6.1 5.9 98 0.0   0   100.86     LegendNANA
01:00 6.0 5.8 98 0.0   0   100.85     LegendNANA
02:00 5.5 5.3 99 0.0   0   100.85     LegendNANA
03:00 5.6 5.4 99 0.0 0 1   100.83     LegendNANA
04:00 8.2 8.0 99 0.0 4 1   100.82     LegendNANA
05:00 7.7 7.6 99 0.0 3 1   100.81     LegendNANA
06:00 7.3 7.1 99 0.0   0   100.81     LegendNANA
07:00 6.7 6.5 99 0.0 0 1   100.82     LegendNANA
08:00 6.9 6.8 99 0.2   0   100.83     LegendNANA
09:00 7.6 7.5 99 0.0 6 2   100.85     LegendNANA
10:00 9.0 8.8 99 0.0 5 2   100.82     LegendNANA
11:00 11.1 9.4 89 0.0 4 4   100.78     LegendNANA
12:00 11.7 8.3 80 0.0 3 6   100.71     LegendNANA
13:00 11.4 8.0 79 0.0 4 5   100.65     LegendNANA
14:00 12.3 8.2 76 0.0 2 6   100.59     LegendNANA
15:00 12.2 8.3 77 0.0 8 4   100.54     LegendNANA
16:00 8.9 7.6 91 0.0 11 1   100.49     LegendNANA
17:00 7.4 6.5 94 0.0   0   100.47     LegendNANA
18:00 6.1 5.4 95 0.0 26 2   100.46     LegendNANA
19:00 6.5 6.0 97 0.0 26 2   100.47     LegendNANA
20:00 6.1 5.7 97 0.0 25 2   100.47     LegendNANA
21:00 6.1 5.7 98 0.0   0   100.46     LegendNANA
22:00 5.5 5.2 98 0.0   0   100.43     LegendNANA
23:00 4.9 4.6 98 0.0 36 1   100.40     LegendNANA

Notes on Data Quality.

Legend

  • E = Estimated
  • M = Missing
  • NA = Not Available*
  • [empty] = Indicates an unobserved value
Date modified: